Weather History for Wausau, WI

Change the Weather History Date:

Friday, August 30, 2013

  Actual Average Record
Temperature  
Mean Temperature 76 °F 65 °F  
Max Temperature 82 °F 75 °F 93 °F (1908)
Min Temperature 70 °F 55 °F 32 °F (1915)
Degree Days  
Heating Degree Days 0 3  
Month to date heating degree days 26 40  
Since 1 June heating degree days 142 152  
Since 1 July heating degree days 56 63  
Cooling Degree Days 11 2  
Month to date cooling degree days 144 114  
Year to date cooling degree days 450 374  
Since 1 June cooling degree days 355  
Growing Degree Days 23 (Base 50)    
Moisture  
Dew Point 67 °F    
Average Humidity 78    
Maximum Humidity 100    
Minimum Humidity 55    
Precipitation  
Precipitation T in 0.13 in 1.94 in (1941)
Month to date precipitation 3.53 4.03  
Year to date precipitation 27.63 22.08  
Snow  
Snow 0.00 in 0.00 in 0.00 in ()
Month to date snowfall 0.0 0.0  
Since 1 June snowfall 0.0 0.0  
Since 1 July snowfall 0.0 0.0  
Snow Depth 0.00 in    
Sea Level Pressure  
Sea Level Pressure 29.87 in    
Wind  
Wind Speed 7 mph (NNE)    
Max Wind Speed 16 mph    
Max Gust Speed 22 mph    
Visibility 9 miles    
Events Rain    
T = Trace of Precipitation, MM = Missing Value Source: NWS Daily Summary

Daily Weather History Graph

Daily Weather History Graph

Search for Another Location

Airport:

Trip Planner

Search our weather history database for the weather conditions in past years. The results will help you decide how hot, cold, wet, or windy it might be!

Date:

Astronomy

Aug. 30, 2013 Rise Set
Actual Time 6:18 AM CDT 7:38 PM CDT
Civil Twilight 5:48 AM CDT 8:08 PM CDT
Nautical Twilight 5:11 AM CDT 8:45 PM CDT
Astronomical Twilight 4:32 AM CDT 9:24 PM CDT
Moon 12:49 AM CDT (8/30) 4:01 PM CDT (8/30)
Length of Visible Light 14h 20m
Length of Day
13h 20m
Waning Crescent, 29% of the Moon is Illuminated
Aug 30
Waning Crescent
Sep 5
New
Sep 12
First Quarter
Sep 19
Full
Sep 26
Last Quarter

Hourly Weather History & Observations

Time (CDT) Temp. Heat Index Dew Point Humidity Pressure Visibility Wind Dir Wind Speed Gust Speed Precip Events Conditions
12:54 AM 70.0 °F - 69.1 °F 97% 29.91 in 10.0 mi SE 6.9 mph - N/A   Scattered Clouds
1:54 AM 70.0 °F - 68.0 °F 93% 29.91 in 10.0 mi ESE 5.8 mph - N/A   Overcast
2:54 AM 70.0 °F - 66.9 °F 90% 29.88 in 10.0 mi SE 5.8 mph - 0.00 in Rain Light Rain
3:54 AM 70.0 °F - 68.0 °F 93% 29.85 in 10.0 mi South 4.6 mph - 0.00 in   Clear
4:54 AM 72.0 °F - 69.1 °F 91% 29.83 in 10.0 mi Variable 3.5 mph - N/A   Clear
5:54 AM 71.1 °F - 69.1 °F 93% 29.82 in 7.0 mi Calm Calm - N/A   Mostly Cloudy
6:49 AM 73.4 °F - 69.8 °F 88% 29.83 in 7.0 mi Calm Calm - N/A   Overcast
6:54 AM 73.0 °F - 71.1 °F 93% 29.82 in 7.0 mi Calm Calm - N/A   Overcast
7:54 AM 73.9 °F - 72.0 °F 93% 29.83 in 5.0 mi WNW 5.8 mph - N/A   Overcast
8:18 AM 75.2 °F - 71.6 °F 89% 29.83 in 5.0 mi WSW 9.2 mph - N/A   Overcast
8:54 AM 75.9 °F - 73.0 °F 91% 29.82 in 5.0 mi West 6.9 mph - N/A   Overcast
9:50 AM 75.2 °F - 73.4 °F 94% 29.84 in 5.0 mi WNW 5.8 mph - N/A   Overcast
9:54 AM 75.9 °F - 73.0 °F 91% 29.83 in 5.0 mi NW 5.8 mph - N/A   Overcast
10:06 AM 75.2 °F - 73.4 °F 94% 29.84 in 5.0 mi NW 9.2 mph - N/A   Overcast
10:34 AM 75.2 °F - 69.8 °F 83% 29.86 in 10.0 mi North 10.4 mph - 0.00 in   Overcast
10:54 AM 73.9 °F - 69.1 °F 85% 29.86 in 10.0 mi North 9.2 mph 21.9 mph 0.00 in   Overcast
11:35 AM 77.0 °F - 66.2 °F 69% 29.87 in 10.0 mi North 10.4 mph - N/A   Mostly Cloudy
11:50 AM 78.8 °F - 66.2 °F 65% 29.87 in 10.0 mi NNW 9.2 mph - N/A   Scattered Clouds
11:54 AM 78.1 °F - 66.9 °F 68% 29.86 in 10.0 mi North 9.2 mph - N/A   Partly Cloudy
12:30 PM 80.6 °F 82.7 °F 66.2 °F 61% 29.87 in 10.0 mi North 10.4 mph 16.1 mph N/A   Mostly Cloudy
12:43 PM 78.8 °F - 64.4 °F 61% 29.87 in 10.0 mi NNE 9.2 mph - N/A   Mostly Cloudy
12:54 PM 79.0 °F - 64.9 °F 62% 29.86 in 10.0 mi North 11.5 mph - N/A   Mostly Cloudy
1:54 PM 80.1 °F 81.7 °F 64.0 °F 58% 29.87 in 10.0 mi North 10.4 mph - N/A   Scattered Clouds
2:54 PM 80.1 °F 81.7 °F 64.0 °F 58% 29.87 in 10.0 mi Variable 6.9 mph 16.1 mph N/A   Mostly Cloudy
3:54 PM 82.0 °F 83.4 °F 64.0 °F 54% 29.86 in 10.0 mi ENE 9.2 mph - N/A   Mostly Cloudy
4:54 PM 79.0 °F - 63.0 °F 58% 29.86 in 10.0 mi ENE 10.4 mph - N/A   Scattered Clouds
5:54 PM 78.1 °F - 62.1 °F 58% 29.87 in 10.0 mi NNE 5.8 mph - N/A   Clear
6:54 PM 77.0 °F - 62.1 °F 60% 29.88 in 10.0 mi NE 8.1 mph - N/A   Clear
7:54 PM 73.0 °F - 61.0 °F 66% 29.90 in 10.0 mi ENE 5.8 mph - N/A   Clear
8:54 PM 69.1 °F - 61.0 °F 75% 29.92 in 10.0 mi ENE 3.5 mph - N/A   Clear
9:54 PM 66.9 °F - 60.1 °F 79% 29.93 in 10.0 mi ENE 6.9 mph - N/A   Clear
10:54 PM 64.9 °F - 60.1 °F 84% 29.93 in 10.0 mi NE 3.5 mph - N/A   Clear
11:54 PM 63.0 °F - 59.0 °F 87% 29.91 in 10.0 mi East 3.5 mph - N/A   Clear